CAPE
6 27 18 27 17 7 8 1 0 6 3 6 0 0 0 0 0 0 0 0 0 0 0 0 0 0 0 0 0 0 0 0 0 0 0 0 0 0 0 0 0 0 0 0 62
8 19 22 15 14 2 12 0 0 0 2 8 0 3 0 0 0 0 0 0 0 0 0 0 0 0 0 0 0 0 0 0 0 0 0 0 0 0 0 0 0 0 0 0 0
5 13 21 15 15 12 14 18 0 0 1 0 18 14 6 0 0 0 0 0 0 0 0 0 0 0 0 0 0 0 0 0 0 0 0 0 0 0 0 0 0 0 0 0 0
8 11 16 20 22 16 6 13 16 9 13 0 0 2 0 0 0 0 0 0 0 0 0 0 0 0 0 0 0 0 0 0 0 0 0 0 0 0 0 0 0 0 0 0 0
9 2 11 26 22 19 14 10 7 3 12 3 0 0 10 1 0 0 0 0 0 0 0 0 0 0 0 0 0 0 0 0 0 0 0 0 0 0 0 0 0 0 0 0 0
14 3 9 18 17 18 22 14 3 4 40 25 9 22 1 0 0 0 0 0 0 0 0 0 0 0 0 0 0 0 0 0 0 0 0 0 0 0 0 0 0 0 0 0 0
62 6 3 3 14 17 18 11 3 0 22 29 52 21 0 0 0 0 0 0 0 0 0 0 0 0 0 0 0 0 0 0 0 0 0 0 0 0 0 0 0 0 0 0 0
93 5 1 0 15 27 17 6 4 0 0 35 37 39 0 0 0 0 0 0 0 0 0 0 0 0 0 0 0 0 0 0 0 0 0 0 0 0 0 0 0 0 0 0 0
54 4 3 6 16 19 13 9 2 0 10 28 9 6 0 0 0 0 0 0 0 0 0 0 0 0 0 0 0 0 0 0 0 0 0 0 0 0 0 0 0 0 0 0 0
22 2 2 10 16 13 16 5 4 7 5 0 0 0 0 0 0 0 0 0 0 0 0 0 0 0 0 0 0 0 0 0 0 0 0 0 0 0 0 0 0 0 0 0 0
22 6 4 24 22 9 10 7 1 0 0 0 0 0 0 0 0 0 0 0 0 0 0 0 0 0 0 0 0 0 0 0 0 0 0 0 0 0 0 0 0 0 0 0 0
27 17 23 34 27 7 5 0 0 0 0 0 0 0 0 0 0 0 0 0 0 0 0 0 0 0 0 0 0 0 0 0 0 0 0 0 0 0 0 0 0 0 0 0 0
28 31 22 38 26 18 5 0 0 0 0 0 0 0 0 0 0 0 0 0 0 0 0 0 0 0 0 0 0 0 0 0 0 0 0 0 0 0 0 0 0 0 0 0 0
50 32 38 30 19 23 11 0 0 0 0 0 0 0 0 0 0 0 0 0 0 0 0 0 0 0 0 0 0 0 0 0 0 0 0 0 0 0 0 0 0 0 0 0 0
26 27 20 11 11 13 0 0 0 0 0 0 0 0 0 0 0 0 0 0 0 0 0 0 0 0 0 0 0 0 0 0 0 0 0 0 0 0 0 0 0 0 0 0 0
28 22 23 17 30 0 0 0 0 0 0 0 0 0 0 0 0 0 0 0 0 0 0 0 0 0 0 0 0 0 0 0 0 0 0 0 0 0 0 0 0 0 0 0 0
16 21 16 25 2 12 48 0 0 0 0 0 0 0 0 0 0 0 0 0 0 0 0 0 0 0 0 0 0 0 0 0 0 0 0 0 0 0 0 0 0 0 0 0 0
3 56 31 7 77 143 52 0 0 0 0 0 0 0 0 0 0 0 0 0 0 0 0 0 0 0 0 0 0 0 0 0 0 0 0 0 0 0 0 0 0 0 0 0 0
2 0 1 1 12 223 42 0 0 0 0 0 0 0 0 0 0 0 0 0 0 0 0 0 0 0 0 0 0 0 0 0 0 0 0 0 0 0 0 0 0 0 0 0 0
0 2 0 0 1 162 6 0 0 0 0 0 0 0 0 0 0 0 0 0 0 0 0 0 0 0 0 0 0 0 0 0 0 0 0 0 0 0 0 0 0 0 0 0 0
0 0 0 1 6 115 0 0 0 0 0 0 0 0 0 0 0 0 0 0 0 0 0 0 0 0 0 0 0 0 0 0 0 0 0 0 0 0 0 0 0 0 0 0 0
5 0 0 1 52 22 5 0 0 0 0 0 0 0 0 0 0 0 0 0 0 0 0 0 0 0 0 0 0 0 0 0 0 0 0 0 0 0 0 0 0 0 0 0 0
0 0 0 1 12 4 10 1 9 0 0 0 0 0 0 0 0 0 0 0 0 0 0 0 0 0 0 0 0 0 0 0 0 0 0 0 0 0 0 0 0 0 0 0 0
1 0 1 0 0 3 13 12 16 0 0 0 0 0 0 0 0 0 0 0 0 0 0 0 0 0 0 0 0 0 0 0 0 0 0 0 0 0 0 0 0 0 0 0 0
0 0 0 0 0 0 2 16 20 0 0 0 0 0 0 0 0 0 0 0 0 0 0 0 0 0 0 0 0 0 0 0 0 0 0 0 0 0 0 0 0 0 0 0 0
0 0 0 0 0 0 0 0 11 4 0 0 0 0 0 0 0 0 0 0 0 0 0 0 0 0 0 0 0 0 0 0 0 0 0 0 0 0 0 0 0 0 0 0 0
0 0 0 0 1 1 0 0 0 6 9 6 1 0 0 0 0 0 0 0 0 0 0 0 0 0 0 0 0 0 0 0 0 0 0 0 0 0 0 0 0 0 0 0 0
CIN
-17 -11 -11 -10 -8 -11 -2 -2 -0 -0 -0 -0 -0 -0 -0 -0 -0 -0 -0 -0 -0 -0 -0 -0 -0 -0 -0 -0 -0 -0 -0 -0 -0 -0 -0 -0 -0 -0 -0 -0 -0 -0 -0 -0 -247
-16 -18 -14 -11 -11 -10 -3 -0 -0 -0 -2 -0 -0 -3 -0 -0 -0 -0 -0 -0 -0 -0 -0 -0 -0 -0 -0 -0 -0 -0 -0 -0 -0 -0 -0 -0 -0 -0 -0 -0 -0 -0 -0 -0 -0
-15 -13 -11 -13 -11 -10 -6 -2 -0 -0 -1 -1 -0 -1 -2 -0 -0 -0 -0 -0 -0 -0 -0 -0 -0 -0 -0 -0 -0 -0 -0 -0 -0 -0 -0 -0 -0 -0 -0 -0 -0 -0 -0 -0 -0
-13 -9 -7 -9 -9 -6 -9 -3 -2 -2 -2 -0 -0 -0 -0 -0 -0 -0 -0 -0 -0 -0 -0 -0 -0 -0 -0 -0 -0 -0 -0 -0 -0 -0 -0 -0 -0 -0 -0 -0 -0 -0 -0 -0 -0
-11 -8 -10 -9 -12 -11 -7 -8 -4 -3 -4 -6 -0 -0 -0 -0 -0 -0 -0 -0 -0 -0 -0 -0 -0 -0 -0 -0 -0 -0 -0 -0 -0 -0 -0 -0 -0 -0 -0 -0 -0 -0 -0 -0 -0
-5 -15 -9 -13 -11 -7 -9 -6 -8 -6 -11 -23 -23 -3 -1 -0 -0 -0 -0 -0 -0 -0 -0 -0 -0 -0 -0 -0 -0 -0 -0 -0 -0 -0 -0 -0 -0 -0 -0 -0 -0 -0 -0 -0 -0
-4 -11 -8 -10 -10 -6 -5 -4 -9 -0 -14 -26 -3 -12 -2 -0 -0 -0 -0 -0 -0 -0 -0 -0 -0 -0 -0 -0 -0 -0 -0 -0 -0 -0 -0 -0 -0 -0 -0 -0 -0 -0 -0 -0 -0
-3 -6 -3 -0 -31 -119 -6 -6 -5 -0 -0 -49 -2 -7 -0 -0 -0 -0 -0 -0 -0 -0 -0 -0 -0 -0 -0 -0 -0 -0 -0 -0 -0 -0 -0 -0 -0 -0 -0 -0 -0 -0 -0 -0 -0
-63 -5 -7 -7 -7 -75 -6 -5 -3 -1 -35 -24 -10 -23 -0 -0 -0 -0 -0 -0 -0 -0 -0 -0 -0 -0 -0 -0 -0 -0 -0 -0 -0 -0 -0 -0 -0 -0 -0 -0 -0 -0 -0 -0 -0
-19 -6 -4 -8 -6 -8 -5 -3 -1 -1 -3 -0 -0 -0 -0 -0 -0 -0 -0 -0 -0 -0 -0 -0 -0 -0 -0 -0 -0 -0 -0 -0 -0 -0 -0 -0 -0 -0 -0 -0 -0 -0 -0 -0 -0
-4 -3 -4 -7 -69 -8 -2 -0 -0 -0 -0 -0 -0 -0 -0 -0 -0 -0 -0 -0 -0 -0 -0 -0 -0 -0 -0 -0 -0 -0 -0 -0 -0 -0 -0 -0 -0 -0 -0 -0 -0 -0 -0 -0 -0
-2 -3 -1 -13 -61 -5 -0 -0 -0 -0 -0 -0 -0 -0 -0 -0 -0 -0 -0 -0 -0 -0 -0 -0 -0 -0 -0 -0 -0 -0 -0 -0 -0 -0 -0 -0 -0 -0 -0 -0 -0 -0 -0 -0 -0
-0 -3 -23 -50 -69 -2 -1 -0 -0 -0 -0 -0 -0 -0 -0 -0 -0 -0 -0 -0 -0 -0 -0 -0 -0 -0 -0 -0 -0 -0 -0 -0 -0 -0 -0 -0 -0 -0 -0 -0 -0 -0 -0 -0 -0
-7 -19 -48 -67 -13 -0 -0 -0 -0 -0 -0 -0 -0 -0 -0 -0 -0 -0 -0 -0 -0 -0 -0 -0 -0 -0 -0 -0 -0 -0 -0 -0 -0 -0 -0 -0 -0 -0 -0 -0 -0 -0 -0 -0 -0
-0 -21 -73 -8 -2 -0 -0 -0 -0 -0 -0 -0 -0 -0 -0 -0 -0 -0 -0 -0 -0 -0 -0 -0 -0 -0 -0 -0 -0 -0 -0 -0 -0 -0 -0 -0 -0 -0 -0 -0 -0 -0 -0 -0 -0
-2 -42 -15 -8 -1 -0 -0 -0 -0 -0 -0 -0 -0 -0 -0 -0 -0 -0 -0 -0 -0 -0 -0 -0 -0 -0 -0 -0 -0 -0 -0 -0 -0 -0 -0 -0 -0 -0 -0 -0 -0 -0 -0 -0 -0
-19 -9 -11 -7 -0 -59 -73 -0 -0 -0 -0 -0 -0 -0 -0 -0 -0 -0 -0 -0 -0 -0 -0 -0 -0 -0 -0 -0 -0 -0 -0 -0 -0 -0 -0 -0 -0 -0 -0 -0 -0 -0 -0 -0 -0
-0 -2 -16 -0 -14 -44 -56 -0 -0 -0 -0 -0 -0 -0 -0 -0 -0 -0 -0 -0 -0 -0 -0 -0 -0 -0 -0 -0 -0 -0 -0 -0 -0 -0 -0 -0 -0 -0 -0 -0 -0 -0 -0 -0 -0
-0 -0 -20 -0 -95 -15 -39 -0 -0 -0 -0 -0 -0 -0 -0 -0 -0 -0 -0 -0 -0 -0 -0 -0 -0 -0 -0 -0 -0 -0 -0 -0 -0 -0 -0 -0 -0 -0 -0 -0 -0 -0 -0 -0 -0
-0 -0 -0 -0 -0 -9 -28 -0 -0 -0 -0 -0 -0 -0 -0 -0 -0 -0 -0 -0 -0 -0 -0 -0 -0 -0 -0 -0 -0 -0 -0 -0 -0 -0 -0 -0 -0 -0 -0 -0 -0 -0 -0 -0 -0
-0 -0 -0 -0 -9 -0 -0 -0 -0 -0 -0 -0 -0 -0 -0 -0 -0 -0 -0 -0 -0 -0 -0 -0 -0 -0 -0 -0 -0 -0 -0 -0 -0 -0 -0 -0 -0 -0 -0 -0 -0 -0 -0 -0 -0
-0 -0 -0 -0 -0 -1 -0 -0 -0 -0 -0 -0 -0 -0 -0 -0 -0 -0 -0 -0 -0 -0 -0 -0 -0 -0 -0 -0 -0 -0 -0 -0 -0 -0 -0 -0 -0 -0 -0 -0 -0 -0 -0 -0 -0
-0 -0 -0 -0 -10 -0 -1 -3 -8 -0 -0 -0 -0 -0 -0 -0 -0 -0 -0 -0 -0 -0 -0 -0 -0 -0 -0 -0 -0 -0 -0 -0 -0 -0 -0 -0 -0 -0 -0 -0 -0 -0 -0 -0 -0
-4 -0 -0 -0 -0 -0 -1 -0 -1 -0 -0 -0 -0 -0 -0 -0 -0 -0 -0 -0 -0 -0 -0 -0 -0 -0 -0 -0 -0 -0 -0 -0 -0 -0 -0 -0 -0 -0 -0 -0 -0 -0 -0 -0 -0
-0 -0 -0 -0 -0 -0 -0 -2 -1 -1 -0 -0 -0 -0 -0 -0 -0 -0 -0 -0 -0 -0 -0 -0 -0 -0 -0 -0 -0 -0 -0 -0 -0 -0 -0 -0 -0 -0 -0 -0 -0 -0 -0 -0 -0
-0 -0 -0 -0 -0 -0 -0 -0 -0 -1 -0 -0 -0 -0 -0 -0 -0 -0 -0 -0 -0 -0 -0 -0 -0 -0 -0 -0 -0 -0 -0 -0 -0 -0 -0 -0 -0 -0 -0 -0 -0 -0 -0 -0 -0
-0 -0 -0 -0 -2 -0 -0 -0 -0 -4 -10 -11 -9 -0 -0 -0 -0 -0 -0 -0 -0 -0 -0 -0 -0 -0 -0 -0 -0 -0 -0 -0 -0 -0 -0 -0 -0 -0 -0 -0 -0 -0 -0 -0 -0
Wind_Speed
30 27 31 32 30 27 24 21 18 17 14 15 20 19 20 26 24 26 30 30 23 21 24 26 26 25 25 24 23 23 22 17 12 10 6 20 22 23 20 21 21 21 16 13 22
33 30 30 31 32 28 26 23 20 18 16 14 16 21 21 22 29 35 29 32 29 23 26 29 29 25 26 26 25 26 25 19 16 15 10 20 25 24 23 24 23 23 17 22 24
33 31 31 30 30 27 25 24 23 19 15 16 16 17 21 20 31 39 31 34 29 28 30 30 29 28 28 26 26 25 23 17 17 15 13 16 24 23 24 26 24 26 26 26 26
36 32 29 28 27 26 25 23 23 22 20 15 16 19 17 23 39 33 25 26 31 30 32 31 29 32 31 30 27 23 21 18 18 17 16 17 19 24 27 19 18 17 23 24 26
36 32 29 26 26 24 24 23 21 19 19 16 14 19 19 27 31 16 25 34 32 30 36 35 33 30 32 30 27 26 21 18 18 17 19 17 21 21 26 21 16 18 26 26 26
37 32 30 26 26 24 24 22 20 19 17 17 15 20 25 34 22 11 19 32 31 32 37 35 33 29 29 30 30 23 20 17 18 18 19 21 21 22 23 23 25 23 26 27 26
37 32 27 25 23 27 23 20 19 20 17 17 17 20 28 29 18 20 19 27 26 34 36 35 30 29 27 25 23 19 21 20 21 21 20 21 24 27 19 18 23 27 27 27 26
36 31 27 24 22 25 22 19 19 18 18 16 17 25 30 25 21 22 22 26 30 33 33 29 27 28 28 22 24 25 26 24 25 25 22 23 22 21 20 24 25 21 23 20 25
32 31 27 24 24 25 20 18 16 16 15 13 19 25 31 17 26 24 24 25 22 31 28 26 29 32 26 31 30 30 30 30 24 27 23 25 24 17 19 18 23 20 20 10 18
34 31 27 22 21 25 20 18 15 14 14 15 20 25 30 29 21 20 21 23 26 31 29 31 32 36 36 39 36 34 34 29 30 28 28 27 31 19 17 19 19 18 16 15 11
32 28 27 23 26 26 24 20 22 24 28 27 28 27 20 17 19 22 23 27 31 35 35 37 38 41 40 37 34 32 35 30 28 25 27 32 33 30 25 21 21 21 18 15 17
29 28 25 25 26 31 32 29 29 23 29 29 26 30 18 20 23 23 29 26 32 33 37 37 44 39 35 33 32 29 33 32 26 26 28 28 35 32 30 28 25 25 24 20 17
29 27 25 24 30 36 38 31 22 17 27 28 23 29 23 25 25 29 30 29 34 36 39 38 39 30 32 33 32 32 34 30 29 25 26 28 33 29 25 26 24 24 24 23 17
31 30 26 26 31 37 40 28 24 21 30 32 28 28 25 25 26 28 30 30 32 38 39 38 31 34 34 36 33 33 29 24 24 25 30 26 26 24 23 22 23 22 20 18 16
31 29 28 28 30 40 34 25 23 22 42 28 29 23 26 29 26 33 27 30 35 35 36 33 36 36 39 36 31 28 24 23 22 26 25 26 29 27 20 23 21 19 18 17 16
27 29 28 32 30 35 26 22 22 34 40 32 28 31 29 29 28 30 32 26 26 32 32 31 26 31 31 28 29 21 21 21 22 26 34 30 30 29 24 25 18 17 16 16 15
24 30 30 30 29 31 27 26 35 45 24 31 36 32 33 32 28 35 38 36 34 36 38 32 31 30 27 28 26 28 27 28 31 32 34 27 30 30 22 20 17 16 16 14 12
20 28 30 23 26 29 31 33 46 46 36 23 31 31 39 29 31 35 38 40 38 36 37 38 39 34 31 34 34 34 32 31 35 34 34 27 34 30 21 19 18 14 14 12 11
21 28 30 22 27 32 35 45 46 39 40 28 27 35 36 37 30 33 40 43 40 38 36 39 36 30 29 28 28 34 39 27 26 27 32 31 32 27 22 22 18 14 11 10 9
23 29 31 23 27 33 39 49 36 31 32 30 34 37 43 40 34 36 37 43 43 38 31 33 37 30 29 26 27 32 26 34 32 36 38 33 34 31 26 23 18 15 11 8 7
24 28 26 24 28 35 49 46 34 27 29 36 34 38 39 39 38 38 36 30 40 38 32 29 32 33 28 37 35 32 34 34 31 33 37 38 36 25 26 20 17 14 11 9 7
18 35 21 25 33 44 49 41 29 29 29 32 31 32 38 37 40 38 40 39 35 34 38 29 28 34 36 28 29 32 35 35 38 38 35 33 35 23 21 15 14 12 11 9 8
26 19 27 28 38 48 42 41 34 32 33 33 33 32 32 38 40 40 37 31 29 32 37 33 31 35 35 35 33 38 36 36 34 30 37 39 36 25 20 15 12 11 10 10 9
21 29 21 33 29 41 45 46 41 32 32 30 32 30 28 35 35 40 39 33 33 32 29 30 35 40 43 40 31 39 39 35 34 39 39 40 33 27 22 19 15 14 13 12 11
22 26 26 33 35 34 41 42 45 40 34 31 32 37 37 35 37 37 35 35 34 33 32 32 42 39 40 33 31 35 38 36 38 42 39 44 38 34 27 23 19 17 16 15 15
24 25 23 27 28 30 35 49 47 42 34 38 37 33 34 39 39 39 34 36 37 37 36 33 38 37 42 36 36 38 36 35 39 42 42 41 39 31 25 21 19 19 18 18 17
21 21 23 25 31 34 32 32 45 46 36 34 34 31 33 32 28 29 28 29 28 34 35 36 38 38 49 39 40 50 46 40 40 41 39 47 41 30 27 26 23 22 22 21 20
Wind_Direction
240 238 236 235 234 231 230 232 235 244 248 242 234 239 238 235 239 243 232 228 240 247 235 231 232 233 233 234 233 234 238 244 250 255 263 219 212 203 213 193 194 188 203 124 108
237 235 234 234 234 231 230 231 231 238 242 238 232 236 240 241 238 239 239 229 245 247 231 226 228 228 229 228 229 228 234 244 245 248 244 218 208 205 200 190 188 186 209 119 119
236 234 234 233 233 231 230 230 232 233 236 242 241 232 241 243 236 233 236 232 248 243 232 230 233 224 224 224 225 228 233 244 240 244 236 229 214 213 204 191 190 176 166 143 139
231 233 231 231 232 231 230 231 232 235 238 243 243 236 239 236 229 235 223 227 254 239 231 226 225 221 219 220 224 227 237 239 237 238 235 231 226 213 201 224 226 226 136 140 150
230 231 229 229 230 230 231 231 232 232 236 238 239 228 234 235 238 232 222 230 246 232 222 220 219 220 218 218 222 228 231 238 236 236 233 233 226 226 209 223 237 233 183 159 162
228 229 226 227 229 230 229 229 229 229 229 228 225 230 235 231 243 245 226 223 233 226 220 220 220 222 219 219 221 229 227 232 234 236 236 234 234 229 224 225 214 220 187 176 170
227 227 226 226 227 226 226 225 226 229 227 226 228 227 235 233 249 244 226 222 233 222 220 220 227 220 219 219 226 220 227 233 234 236 240 240 239 228 242 242 230 216 207 183 175
226 224 222 224 223 221 221 222 224 226 228 228 225 229 231 243 244 237 226 226 222 221 224 225 225 221 223 221 222 225 229 233 236 236 243 240 247 243 251 244 239 248 242 251 180
222 219 217 218 217 217 216 215 216 220 220 220 227 232 228 245 231 233 227 221 219 218 224 222 221 220 222 217 221 227 230 233 239 236 242 241 247 258 258 259 251 258 260 286 265
221 217 215 210 207 210 207 205 205 209 216 225 240 230 234 230 231 228 226 217 215 212 214 217 219 217 220 218 220 224 229 235 236 237 241 244 242 261 263 264 264 267 274 278 294
218 211 213 198 203 202 195 194 208 221 220 226 231 228 236 230 224 223 219 211 211 211 213 214 215 217 218 223 229 231 230 237 239 244 245 245 247 251 258 266 266 266 274 284 282
216 209 203 187 197 202 206 215 212 231 216 234 239 226 244 228 222 217 212 213 213 211 211 215 219 220 222 225 229 231 232 236 243 246 247 252 249 254 255 257 262 263 267 278 287
207 198 189 180 199 205 210 218 221 203 221 230 236 223 233 226 224 213 213 221 213 212 215 217 219 220 221 225 227 232 234 237 246 246 252 256 256 256 259 261 266 269 272 280 291
199 194 183 173 201 207 211 217 222 229 222 226 228 225 227 225 223 217 216 219 216 215 215 222 226 223 224 226 228 235 240 239 243 244 248 252 259 256 258 263 266 271 277 285 294
190 188 179 182 208 207 208 215 217 230 220 230 223 228 222 220 215 216 221 222 215 213 217 223 221 222 222 225 231 238 237 238 244 248 255 254 257 261 266 263 267 273 280 287 294
189 188 179 203 209 207 206 208 214 220 224 224 221 219 215 221 220 212 216 226 223 218 225 229 234 229 230 231 233 229 234 243 251 252 252 253 255 261 265 263 267 276 282 289 297
201 193 192 211 211 203 201 204 213 220 224 222 217 216 214 218 218 214 213 217 216 214 218 225 226 232 231 228 229 232 229 242 245 247 251 257 257 258 272 273 271 274 281 290 298
210 193 201 217 209 201 202 209 218 220 219 227 218 215 216 215 222 218 216 219 224 223 219 222 227 226 230 231 232 231 231 242 245 249 252 258 258 263 267 274 278 282 284 291 297
216 204 205 219 208 205 203 212 222 218 219 221 212 211 220 221 224 221 221 221 223 224 224 225 231 233 236 237 232 232 236 248 253 259 258 258 262 270 270 266 271 276 279 285 293
215 205 209 225 213 206 210 220 227 227 219 219 222 220 219 218 221 221 220 226 224 226 235 233 232 236 238 241 242 240 237 243 250 251 255 260 262 263 264 261 262 264 266 269 286
214 207 220 224 209 208 217 219 226 234 225 221 228 225 226 220 224 226 226 234 224 227 234 235 238 235 237 237 236 239 240 246 252 255 257 259 265 272 269 260 256 255 256 256 259
218 217 231 218 207 218 220 218 234 232 232 230 230 233 227 223 227 230 230 231 228 228 229 237 241 237 237 248 249 246 246 242 248 253 258 264 266 282 279 265 257 252 252 255 260
224 232 232 223 216 218 222 223 231 230 231 233 231 235 234 227 230 233 234 238 234 231 229 232 240 238 242 248 249 245 245 247 251 261 257 257 264 278 278 270 262 252 249 250 253
233 226 230 221 231 221 220 224 228 235 234 237 235 235 232 232 236 236 237 240 238 238 241 236 243 242 242 248 248 247 245 248 250 255 258 259 267 271 269 265 262 259 254 248 249
235 231 232 221 224 226 222 227 225 230 237 237 239 237 234 238 235 239 237 240 241 241 239 240 243 246 249 255 254 254 249 248 249 253 257 262 266 270 266 264 262 257 251 251 251
233 232 235 233 228 228 227 228 226 228 232 235 240 239 240 241 240 241 239 241 240 239 237 243 249 249 251 255 258 257 256 252 252 255 259 265 269 278 270 269 261 259 254 252 252
243 240 238 237 228 227 231 230 231 232 239 243 243 243 242 247 250 253 249 248 250 240 236 239 246 250 253 258 260 258 253 252 257 258 259 261 267 275 270 263 259 256 251 251 254